Berlin, NH

6:33 PM EDT on May 25, 2017 (GMT -0400)
Berlin Municipal

Weather History for KBML - January, 2014

Change the Weather History Date:

Saturday, January 11, 2014

  Actual Average Record
Temperature  
Mean Temperature 34 °F -  
Max Temperature 48 °F 21 °F 48 °F (2014)
Min Temperature 21 °F 1 °F -29 °F (2004)
Degree Days  
Heating Degree Days 30    
Moisture  
Dew Point 34 °F    
Average Humidity 93    
Maximum Humidity 100    
Minimum Humidity 74    
Precipitation  
Precipitation 0.76 in - - ()
Sea Level Pressure  
Sea Level Pressure 29.58 in    
Wind  
Wind Speed 2 mph (SW)    
Max Wind Speed 9 mph    
Max Gust Speed -    
Visibility 4 miles    
Events Fog , Rain    
Averages and records for this station are not official NWS values.
T = Trace of Precipitation, MM = Missing Value Source: NWS Daily Summary

Daily Weather History Graph

Daily Weather History Graph

Search for Another Location

Airport or City:

Trip Planner

Search our weather history database for the weather conditions in past years. The results will help you decide how hot, cold, wet, or windy it might be!

Date:

Astronomy

Jan. 11, 2014 Rise Set
Actual Time 7:19 AM EST 4:25 PM EST
Civil Twilight 6:47 AM EST 4:58 PM EST
Nautical Twilight 6:10 AM EST 5:34 PM EST
Astronomical Twilight 5:35 AM EST 6:09 PM EST
Moon 1:09 PM EST (1/11) 3:19 AM EST (1/11)
Length of Visible Light 10h 11m
Length of Day
9h 06m
Waxing Gibbous, 83% of the Moon is Illuminated
Jan 11
Waxing Gibbous
Jan 15
Full
Jan 24
Last Quarter
Jan 30
New
Feb 6
First Quarter

Hourly Weather History & Observations

Time (EST) Temp. Windchill Dew Point Humidity Pressure Visibility Wind Dir Wind Speed Gust Speed Precip Events Conditions
12:11 AM 23.0 °F - 16.0 °F 74% 30.18 in 9.0 mi Calm Calm - N/A   Overcast
12:52 AM 23.0 °F - 16.0 °F 74% 30.25 in 10.0 mi Calm Calm - N/A   Overcast
1:52 AM 24.1 °F - 17.1 °F 75% 30.22 in 10.0 mi Calm Calm - N/A   Overcast
2:52 AM 24.1 °F - 17.1 °F 75% 30.19 in 10.0 mi Calm Calm - N/A   Overcast
3:12 AM 23.0 °F - 17.1 °F 78% 30.13 in 10.0 mi Calm Calm - N/A   Mostly Cloudy
3:52 AM 21.0 °F - 17.1 °F 85% 30.16 in 10.0 mi Calm Calm - N/A   Partly Cloudy
4:52 AM 21.9 °F - 16.0 °F 78% 30.12 in 9.0 mi Calm Calm - N/A   Overcast
5:52 AM 21.9 °F 17.2 °F 17.1 °F 82% 30.07 in 10.0 mi South 3.5 mph - N/A   Overcast
6:20 AM 23.0 °F - 18.0 °F 81% 29.99 in 7.0 mi Calm Calm - 0.01 in Rain Light Freezing Rain
6:52 AM 24.1 °F - 19.9 °F 84% 30.02 in 4.0 mi Calm Calm - 0.04 in Rain Light Freezing Rain
7:40 AM 26.1 °F - 24.1 °F 92% 29.93 in 2.5 mi Calm Calm - 0.02 in Rain Light Freezing Rain
7:43 AM 26.1 °F - 24.1 °F 92% 29.94 in 1.8 mi Calm Calm - 0.02 in Rain Light Freezing Rain
7:52 AM 27.0 °F - 24.1 °F 89% 29.97 in 2.0 mi Calm Calm - 0.04 in Rain Light Freezing Rain
8:08 AM 27.0 °F - 25.0 °F 92% 29.91 in 1.8 mi Calm Calm - 0.01 in Rain Light Freezing Rain
8:22 AM 28.0 °F - 26.1 °F 92% 29.90 in 2.0 mi Calm Calm - 0.03 in   Overcast
8:27 AM 28.0 °F - 27.0 °F 96% 29.89 in 1.8 mi Calm Calm - 0.04 in Rain Light Freezing Rain
8:42 AM 30.0 °F 26.5 °F 27.0 °F 88% 29.89 in 3.0 mi Variable 3.5 mph - 0.04 in Rain Light Freezing Rain
8:52 AM 30.0 °F 25.2 °F 28.0 °F 92% 29.93 in 2.5 mi North 4.6 mph - 0.05 in Rain Light Freezing Rain
9:05 AM 30.9 °F 27.5 °F 28.9 °F 92% 29.87 in 3.0 mi NNW 3.5 mph - 0.01 in Rain Light Freezing Rain
9:38 AM 32.0 °F 27.5 °F 30.9 °F 96% 29.84 in 2.0 mi NW 4.6 mph - 0.03 in Rain Light Freezing Rain
9:52 AM 33.1 °F 26.9 °F 32.0 °F 96% 29.88 in 3.0 mi North 6.9 mph - 0.04 in Rain Light Freezing Rain
10:03 AM 33.1 °F 28.7 °F 32.0 °F 96% 29.81 in 5.0 mi NNW 4.6 mph - 0.00 in   Overcast
10:44 AM 34.0 °F 31.0 °F 33.1 °F 96% 29.76 in 2.5 mi Variable 3.5 mph - 0.01 in Rain Light Rain
10:52 AM 34.0 °F - 33.1 °F 96% 29.79 in 1.8 mi Calm Calm - 0.02 in Rain Light Rain
10:56 AM 34.0 °F 31.0 °F 33.1 °F 96% 29.74 in 2.0 mi NW 3.5 mph - 0.00 in Rain Light Rain
11:07 AM 34.0 °F 31.0 °F 32.0 °F 92% 29.72 in 4.0 mi NNW 3.5 mph - 0.00 in   Overcast
11:52 AM 34.0 °F 31.0 °F 33.1 °F 96% 29.72 in 5.0 mi NNW 3.5 mph - 0.00 in Rain Light Rain
12:10 PM 34.0 °F 31.0 °F 33.1 °F 96% 29.65 in 2.5 mi NNW 3.5 mph - 0.01 in Rain Light Rain
12:19 PM 35.1 °F 29.3 °F 33.1 °F 92% 29.63 in 6.0 mi NNW 6.9 mph - 0.01 in   Overcast
12:36 PM 35.1 °F 32.2 °F 33.1 °F 92% 29.61 in 5.0 mi Variable 3.5 mph - 0.01 in Rain Light Rain
12:52 PM 35.1 °F 32.2 °F 33.1 °F 92% 29.64 in 5.0 mi NNW 3.5 mph - 0.01 in Rain Light Rain
1:20 PM 35.1 °F - 34.0 °F 96% 29.56 in 1.8 mi Calm Calm - 0.03 in Rain Rain
1:52 PM 35.1 °F - 34.0 °F 96% 29.59 in 1.5 mi Calm Calm - 0.10 in Rain Rain
2:00 PM 35.1 °F 32.2 °F 34.0 °F 96% 29.53 in 1.5 mi NNW 3.5 mph - 0.03 in Rain Rain
2:10 PM 35.1 °F - 34.0 °F 96% 29.52 in 2.5 mi Calm Calm - 0.03 in Rain Light Rain
2:36 PM 35.1 °F - 34.0 °F 96% 29.49 in 1.5 mi Calm Calm - 0.06 in Rain Rain
2:52 PM 35.1 °F - 34.0 °F 96% 29.52 in 1.0 mi Calm Calm - 0.08 in Rain Rain
3:32 PM 39.0 °F 34.0 °F 37.0 °F 93% 29.44 in 2.0 mi South 6.9 mph - 0.05 in Rain Light Rain
3:40 PM 39.0 °F 35.7 °F 37.9 °F 96% 29.43 in 3.0 mi South 4.6 mph - 0.06 in Rain Light Rain
3:52 PM 44.1 °F 42.5 °F 43.0 °F 96% 29.47 in 3.0 mi SSW 3.5 mph - 0.08 in Rain Light Rain
4:01 PM 43.0 °F 40.3 °F 43.0 °F 100% 29.43 in 2.5 mi Variable 4.6 mph - 0.01 in Rain Light Rain
4:20 PM 46.0 °F 43.9 °F 45.0 °F 96% 29.40 in 5.0 mi SSE 4.6 mph - 0.07 in Rain Light Rain
4:52 PM 46.0 °F 43.1 °F 45.0 °F 96% 29.39 in 5.0 mi SSE 5.8 mph - 0.11 in Rain Light Rain
5:10 PM 45.0 °F 43.5 °F 44.1 °F 97% 29.34 in 1.8 mi SSE 3.5 mph - 0.03 in Rain Rain
5:23 PM 45.0 °F 42.6 °F 44.1 °F 97% 29.33 in 3.0 mi Variable 4.6 mph - 0.05 in Rain Light Rain
5:29 PM 45.0 °F 42.6 °F 45.0 °F 100% 29.33 in 1.8 mi SW 4.6 mph - 0.06 in Rain Rain
5:52 PM 46.9 °F - 46.0 °F 97% 29.34 in 2.5 mi South 3.5 mph - 0.11 in Rain Light Rain
5:59 PM 46.9 °F - 46.0 °F 97% 29.30 in 8.0 mi South 3.5 mph - 0.00 in Rain Light Rain
6:52 PM 48.0 °F - 46.9 °F 96% 29.27 in 9.0 mi SSE 5.8 mph - 0.06 in Rain Light Rain
7:04 PM 44.1 °F 40.1 °F 43.0 °F 96% 29.23 in 1.8 mi SE 6.9 mph - 0.00 in Rain Light Rain
7:25 PM 46.0 °F 41.9 °F 45.0 °F 96% 29.23 in 1.0 mi North 8.1 mph - 0.00 in Rain Light Rain
7:28 PM 46.0 °F 41.4 °F 45.0 °F 96% 29.24 in 2.0 mi North 9.2 mph - 0.00 in Rain Light Rain
7:36 PM 46.0 °F 43.1 °F 46.0 °F 100% 29.24 in 7.0 mi North 5.8 mph - 0.00 in Rain Light Rain
7:45 PM 44.1 °F - 43.0 °F 96% 29.24 in 1.8 mi Calm Calm - 0.00 in Rain Light Rain
7:52 PM 43.0 °F 40.3 °F 43.0 °F 100% 29.28 in 1.0 mi Variable 4.6 mph - 0.00 in Rain Light Rain
8:09 PM 41.0 °F 39.0 °F 39.9 °F 96% 29.23 in 0.8 mi SE 3.5 mph - 0.01 in Rain Light Rain
8:52 PM 39.9 °F - 39.9 °F 100% 29.24 in 0.5 mi Calm Calm - 0.01 in Fog , Rain Light Rain
9:24 PM 37.0 °F - 37.0 °F 100% 29.18 in 0.2 mi Calm Calm - 0.00 in Fog Fog
9:52 PM 37.0 °F 33.3 °F 37.0 °F 100% 29.18 in 0.2 mi SE 4.6 mph - 0.00 in Fog , Rain Light Rain
10:03 PM 39.9 °F 36.7 °F 39.0 °F 97% 29.14 in 0.5 mi South 4.6 mph - 0.00 in Fog , Rain Light Rain
10:22 PM 42.1 °F 39.2 °F 41.0 °F 96% 29.12 in 1.5 mi South 4.6 mph - 0.00 in Rain Light Rain
10:25 PM 41.0 °F 37.1 °F 41.0 °F 100% 29.11 in 3.0 mi SSE 5.8 mph - 0.00 in   Overcast
10:52 PM 42.1 °F 37.7 °F 42.1 °F 100% 29.13 in 9.0 mi South 6.9 mph - 0.00 in   Overcast
11:12 PM 39.9 °F 37.8 °F 39.0 °F 97% 29.11 in 1.5 mi East 3.5 mph - N/A   Mostly Cloudy
11:20 PM 39.9 °F 36.7 °F 39.0 °F 97% 29.10 in 0.8 mi WNW 4.6 mph - N/A   Mostly Cloudy
11:31 PM 39.9 °F - 39.0 °F 97% 29.12 in 1.0 mi Calm Calm - N/A   Mostly Cloudy
11:39 PM 39.9 °F - 39.0 °F 97% 29.14 in 2.0 mi Calm Calm - N/A   Mostly Cloudy
11:52 PM 43.0 °F 40.3 °F 42.1 °F 97% 29.16 in 10.0 mi South 4.6 mph - 0.01 in Rain Light Rain